Weather History for Cullman, AL

Change the Weather History Date:

Monday, February 18, 2013

  Actual Average (KHSV) Record (KHSV)
Temperature  
Mean Temperature 46 °F 46 °F  
Max Temperature 59 °F 57 °F 75 °F (1927)
Min Temperature 34 °F 36 °F -3 °F (1958)
Degree Days  
Heating Degree Days 18 19  
Month to date heating degree days 371  
Since 1 July heating degree days 2281  
Cooling Degree Days 0 0  
Month to date cooling degree days 0  
Year to date cooling degree days 0  
Moisture  
Dew Point 29 °F    
Average Humidity 49    
Maximum Humidity 91    
Minimum Humidity 36    
Precipitation  
Precipitation 0.21 in 0.17 in 2.66 in (1991)
Month to date precipitation 3.05  
Year to date precipitation 7.94  
Snow  
Snow 0.00 in - - ()
Month to date snowfall  
Since 1 July snowfall  
Snow Depth -    
Sea Level Pressure  
Sea Level Pressure 30.14 in    
Wind  
Wind Speed 11 mph (South)    
Max Wind Speed 23 mph    
Max Gust Speed 32 mph    
Visibility 10 miles    
Events Rain    
T = Trace of Precipitation, MM = Missing Value Source: NWS Daily Summary

Daily Weather History Graph

Daily Weather History Graph

Search for Another Location

Airport:

Trip Planner

Search our weather history database for the weather conditions in past years. The results will help you decide how hot, cold, wet, or windy it might be!

Date:

Astronomy

Feb. 18, 2013 Rise Set
Actual Time 6:28 AM CST 5:34 PM CST
Civil Twilight 6:03 AM CST 5:59 PM CST
Nautical Twilight 5:34 AM CST 6:29 PM CST
Astronomical Twilight 5:05 AM CST 6:58 PM CST
Moon 11:27 AM CST (2/18) 1:01 AM CST (2/18)
Length of Visible Light 11h 56m
Length of Day
11h 05m
First Quarter, 58% of the Moon is Illuminated
Feb 18
First Quarter
Feb 25
Full
Mar 4
Last Quarter
Mar 11
New
Mar 19
First Quarter

Hourly Weather History & Observations

Time (CST) Temp. Windchill Dew Point Humidity Pressure Visibility Wind Dir Wind Speed Gust Speed Precip Events Conditions
12:15 AM 36.7 °F 31.2 °F 18.1 °F 47% 30.23 in 10.0 mi South 6.9 mph - N/A   Clear
12:35 AM 36.5 °F 31.0 °F 18.0 °F 47% 30.23 in 10.0 mi South 6.9 mph - N/A   Clear
12:55 AM 36.3 °F 30.1 °F 18.0 °F 47% 30.23 in 10.0 mi South 8.1 mph - N/A   Clear
1:15 AM 36.3 °F 30.1 °F 18.1 °F 48% 30.23 in 10.0 mi South 8.1 mph - N/A   Clear
1:35 AM 37.0 °F 28.9 °F 18.3 °F 47% 30.22 in 10.0 mi South 12.7 mph - N/A   Clear
1:55 AM 38.1 °F 30.2 °F 18.3 °F 45% 30.22 in 10.0 mi South 12.7 mph - N/A   Clear
2:35 AM 39.4 °F 31.8 °F 18.3 °F 43% 30.22 in 10.0 mi South 12.7 mph 18.4 mph N/A   Clear
2:55 AM 39.0 °F 31.8 °F 19.0 °F 45% 30.22 in 10.0 mi South 11.5 mph - N/A   Clear
3:15 AM 38.7 °F 31.4 °F 19.6 °F 46% 30.22 in 10.0 mi South 11.5 mph - N/A   Clear
3:35 AM 38.3 °F 30.9 °F 20.1 °F 48% 30.22 in 10.0 mi South 11.5 mph - N/A   Clear
3:55 AM 38.1 °F 31.7 °F 20.7 °F 49% 30.22 in 10.0 mi South 9.2 mph - N/A   Clear
4:15 AM 37.2 °F 31.2 °F 20.7 °F 51% 30.23 in 10.0 mi South 8.1 mph - N/A   Clear
4:35 AM 36.7 °F 31.2 °F 21.0 °F 53% 30.24 in 10.0 mi South 6.9 mph - N/A   Clear
4:55 AM 36.7 °F 34.1 °F 21.2 °F 54% 30.24 in 10.0 mi SSE 3.5 mph - N/A   Clear
5:15 AM 36.1 °F 33.5 °F 21.4 °F 55% 30.24 in 10.0 mi SSE 3.5 mph - N/A   Clear
5:35 AM 36.1 °F 31.4 °F 22.1 °F 57% 30.24 in 10.0 mi SSE 5.8 mph - N/A   Clear
5:55 AM 36.3 °F 30.8 °F 22.1 °F 56% 30.24 in 10.0 mi SSE 6.9 mph - N/A   Clear
6:15 AM 35.8 °F 31.9 °F 22.3 °F 58% 30.25 in 10.0 mi SE 4.6 mph - N/A   Clear
6:35 AM 35.2 °F 30.3 °F 22.8 °F 61% 30.26 in 10.0 mi South 5.8 mph - N/A   Clear
6:55 AM 34.7 °F 28.8 °F 23.7 °F 64% 30.26 in 10.0 mi South 6.9 mph - N/A   Clear
7:15 AM 36.0 °F 30.3 °F 25.2 °F 65% 30.26 in 10.0 mi South 6.9 mph - N/A   Clear
7:35 AM 37.9 °F 32.1 °F 26.1 °F 62% 30.26 in 10.0 mi South 8.1 mph - N/A   Clear
7:55 AM 39.2 °F 32.5 °F 27.1 °F 62% 30.27 in 10.0 mi South 10.4 mph - N/A   Clear
8:15 AM 41.2 °F 35.5 °F 28.2 °F 60% 30.28 in 10.0 mi South 9.2 mph - N/A   Clear
8:35 AM 43.2 °F 38.4 °F 29.3 °F 58% 30.28 in 10.0 mi South 8.1 mph - N/A   Clear
8:55 AM 44.8 °F 39.0 °F 30.2 °F 57% 30.27 in 10.0 mi South 11.5 mph - N/A   Clear
9:15 AM 46.8 °F - 31.8 °F 56% 30.27 in 10.0 mi South 15.0 mph - N/A   Clear
9:35 AM 47.8 °F - 32.4 °F 55% 30.27 in 10.0 mi South 15.0 mph 21.9 mph N/A   Clear
9:55 AM 49.5 °F - 33.6 °F 54% 30.27 in 10.0 mi South 13.8 mph - N/A   Clear
10:15 AM 50.7 °F - 34.3 °F 53% 30.26 in 10.0 mi South 16.1 mph 21.9 mph N/A   Clear
10:35 AM 51.8 °F - 35.1 °F 53% 30.26 in 10.0 mi SSW 17.3 mph 24.2 mph N/A   Clear
10:55 AM 52.9 °F - 35.2 °F 51% 30.25 in 10.0 mi SSW 19.6 mph 27.6 mph N/A   Clear
11:15 AM 54.1 °F - 35.1 °F 49% 30.24 in 10.0 mi SSW 17.3 mph 25.3 mph N/A   Clear
11:35 AM 54.9 °F - 34.3 °F 46% 30.23 in 10.0 mi South 12.7 mph 23.0 mph N/A   Clear
11:55 AM 56.1 °F - 34.5 °F 44% 30.21 in 10.0 mi South 16.1 mph 21.9 mph N/A   Clear
12:15 PM 56.8 °F - 34.5 °F 43% 30.19 in 10.0 mi SSW 18.4 mph 21.9 mph N/A   Clear
12:35 PM 57.6 °F - 34.3 °F 42% 30.18 in 10.0 mi SSE 18.4 mph 25.3 mph N/A   Clear
12:55 PM 57.9 °F - 34.3 °F 41% 30.16 in 10.0 mi South 15.0 mph 26.5 mph N/A   Clear
1:15 PM 58.8 °F - 34.2 °F 40% 30.14 in 10.0 mi South 19.6 mph 26.5 mph N/A   Clear
1:35 PM 59.2 °F - 34.2 °F 39% 30.13 in 10.0 mi South 15.0 mph 21.9 mph N/A   Clear
1:55 PM 59.9 °F - 34.2 °F 38% 30.13 in 10.0 mi SSE 13.8 mph 26.5 mph N/A   Clear
2:15 PM 59.9 °F - 33.1 °F 36% 30.12 in 10.0 mi South 16.1 mph 25.3 mph N/A   Clear
2:35 PM 59.0 °F - 32.2 °F 36% 30.11 in 10.0 mi SSE 10.4 mph 25.3 mph N/A   Clear
2:55 PM 58.5 °F - 32.0 °F 37% 30.11 in 10.0 mi South 19.6 mph 26.5 mph N/A   Clear
3:15 PM 58.8 °F - 31.8 °F 36% 30.10 in 10.0 mi South 23.0 mph 29.9 mph N/A   Clear
3:35 PM 58.5 °F - 31.6 °F 36% 30.09 in 10.0 mi South 16.1 mph 26.5 mph N/A   Clear
3:55 PM 57.9 °F - 32.0 °F 37% 30.08 in 10.0 mi South 13.8 mph 29.9 mph N/A   Scattered Clouds
4:15 PM 57.9 °F - 32.4 °F 38% 30.06 in 10.0 mi South 17.3 mph 25.3 mph N/A   Clear
4:35 PM 56.8 °F - 32.5 °F 40% 30.04 in 10.0 mi SSE 16.1 mph 25.3 mph N/A   Clear
4:55 PM 56.5 °F - 32.7 °F 41% 30.05 in 10.0 mi SSE 18.4 mph 26.5 mph N/A   Scattered Clouds
5:15 PM 55.8 °F - 32.0 °F 41% 30.04 in 10.0 mi South 18.4 mph 24.2 mph N/A   Scattered Clouds
5:35 PM 55.2 °F - 31.1 °F 40% 30.05 in 10.0 mi SSE 16.1 mph 23.0 mph N/A   Scattered Clouds
5:55 PM 54.7 °F - 31.1 °F 41% 30.04 in 10.0 mi SSE 15.0 mph 23.0 mph N/A   Scattered Clouds
6:15 PM 54.5 °F - 30.9 °F 41% 30.04 in 10.0 mi SSE 18.4 mph 24.2 mph N/A   Scattered Clouds
6:35 PM 54.5 °F - 30.6 °F 40% 30.03 in 10.0 mi SSE 13.8 mph 25.3 mph N/A   Mostly Cloudy
6:55 PM 54.5 °F - 30.2 °F 39% 30.02 in 10.0 mi SSE 13.8 mph 24.2 mph N/A   Overcast
7:15 PM 54.3 °F - 30.0 °F 39% 30.01 in 10.0 mi SSE 17.3 mph 25.3 mph N/A   Scattered Clouds
7:35 PM 54.1 °F - 29.8 °F 39% 30.01 in 10.0 mi SSE 13.8 mph 27.6 mph N/A   Mostly Cloudy
7:55 PM 54.0 °F - 30.0 °F 40% 30.01 in 10.0 mi SSE 13.8 mph 25.3 mph N/A   Overcast
8:15 PM 54.1 °F - 30.2 °F 40% 30.00 in 10.0 mi SSE 19.6 mph 31.1 mph N/A   Mostly Cloudy
8:35 PM 54.3 °F - 30.7 °F 41% 30.00 in 10.0 mi SSE 21.9 mph 32.2 mph N/A   Overcast
8:55 PM 54.1 °F - 31.3 °F 42% 29.99 in 10.0 mi South 21.9 mph 27.6 mph N/A   Overcast
9:15 PM 53.8 °F - 31.6 °F 43% 29.99 in 10.0 mi South 18.4 mph 31.1 mph N/A   Overcast
9:35 PM 53.6 °F - 31.8 °F 44% 29.98 in 10.0 mi South 17.3 mph 28.8 mph N/A   Overcast
9:55 PM 53.2 °F - 32.0 °F 44% 29.97 in 10.0 mi SSE 17.3 mph 21.9 mph N/A   Overcast
10:15 PM 52.9 °F - 32.2 °F 45% 29.97 in 10.0 mi South 20.7 mph 27.6 mph N/A   Overcast
10:35 PM 52.0 °F - 33.4 °F 49% 29.96 in 10.0 mi South 12.7 mph 27.6 mph N/A Rain Rain
10:55 PM 48.4 °F - 38.1 °F 68% 29.96 in 10.0 mi SSE 13.8 mph 25.3 mph 0.01 in Rain Light Rain
11:15 PM 46.8 °F - 39.9 °F 77% 29.96 in 5.0 mi South 11.5 mph 19.6 mph 0.03 in Rain Heavy Rain
11:35 PM 45.3 °F 41.6 °F 41.4 °F 86% 29.99 in 5.0 mi SSW 6.9 mph - 0.10 in Rain Rain
11:55 PM 44.8 °F 43.3 °F 42.3 °F 91% 29.99 in 3.0 mi South 3.5 mph - 0.20 in Rain Heavy Rain